STARLINK-4398, 53466

Orbit data source: Space-Track

STARLINK-4398, 53466 is a payload satellite owned by SpaceX/Seattle (US) in SSO that was launched on Fri, 12 Aug 2022 UTC via an FALCON 9 launch vehicle from the Air Force Western Test Range (AFWTR). Payload-class satellites include a variety of spacecraft equipped with specific instruments for various scientific and technological missions. These include communications satellites like Starlink; space stations such as the ISS; scientific satellites like the Hubble; Earth observation satellites from companies like Planet Labs, Umbra, and HawkEye 360; GPS; miniature CubeSats for education and research; and military/defense satellites.

Loading next visibility...
Identifier
53466, 2022-099B
Orbit
SSO
Country
Flag of USUS
Related business
Manufacturer
SpaceX/Seattle
Mission
Operational Commercial Communications
Bus & Motor
STARLINK, Unknown motor
Mass
300 kg wet, ~275 kg dry
Launch date (UTC)
2022-08-12 (3 years ago)
Launch vehicle
FALCON 9
Launch site
Air Force Western Test Range (AFWTR)
Object type
Payload
Rocket body
Debris
Shape & HBR
Box + 1 Pan, 10.1 m
Radar Cross Section
13.562 m², Large (>1 m²)

Expand to show TLE details & history
Last TLE update: 12 hours ago

TLE from 12 hours ago
0 STARLINK-4398
1 53466U 22099B   25346.87988583  .00000409  00000-0  36400-4 0  9992
2 53466  97.6043 105.2283 0002049  92.6378 267.5081 15.01259059182957
Epoch: 2025-12-12T21:07Z
TLE epoch observation values (Epoch: 2025-12-12T21:07:02.135Z)
Latitude
-0.00003°
Longitude
66.65424°
Altitude
566.134 km
Speed
7.578 km/s
True Right ascension
07h 00m 54s
True Declination
0° 00' 00"
Sunlit
Object was in full shadow at epoch
Visualization orbit readout
Latitude
Unknown
Longitude
Unknown
Altitude
Unknown
Speed
Unknown
Apparent Right ascension
Unknown
Apparent Declination
Unknown
Sunlit
N/A
Visualization observer readout
Local Sidereal Time
07:33:28
Azimuth
Unknown
Elevation
Unknown
Doppler factor
Unknown
Orbital elements
Apogee altitude
561.434 km
Perigee altitude
558.591 km
Semi-major axis
6,938.149 km
Eccentricity
0.0002
Inclination
97.6043°
RAAN
105.2283°
Arg. of periapsis
92.6378°
True anomaly
267.48464°
Mean anomaly
267.5081°
Eccentric anomaly
267.49637°
Mean motion
3.75559 °/min
Orbital period
95.86 mins
BSTAR
0.0000364
Loading maneuver chart data...
Computing Atmospheric mass density...
Loading historical data...
Loading historical data...
Loading historical data...
Loading historical data...
Loading historical data...
Loading historical data...
Loading historical data...

Documentation

Showing up to 5 results
|